GFSFLT2_con_sbcape_072.txt.gz
CAPE
0 30 167 180 174 244 346 371 419 441 401 326 316 368 509 566 460 381 332 307 255 174 80 18 6 0 0 0 0 0 0 0
0 32 9 1 39 137 162 227 232 216 177 138 147 179 248 271 245 249 232 210 159 84 46 16 0 0 0 0 0 0 0 0
24 5 3 2 20 143 186 185 119 127 111 85 74 84 92 115 202 207 191 161 105 52 15 0 0 0 0 0 0 0 0 0
2 1 0 1 3 26 157 167 92 101 58 57 32 57 98 121 159 142 134 94 66 23 0 0 0 0 0 0 0 0 0 0
2 3 2 0 0 0 0 14 83 98 115 86 161 123 126 59 18 2 0 0 0 0 0 0 0 0 0 0 0 0 0 0
9 6 22 28 0 16 61 15 85 72 127 182 287 228 189 71 32 6 0 0 0 0 0 0 0 0 0 0 0 0 0 0
15 13 8 10 5 2 19 57 61 96 128 217 254 270 229 162 85 12 0 0 0 0 0 0 0 0 0 0 0 0 0 0
9 5 4 0 0 0 0 21 92 125 182 185 319 356 291 262 199 81 0 0 0 0 0 0 0 0 0 0 0 0 0 0
1 0 0 0 0 0 11 32 67 84 123 217 280 298 334 365 318 187 3 0 0 0 0 0 0 0 0 0 0 0 0 0
10 4 0 0 0 0 10 48 77 115 180 198 347 370 378 359 241 97 3 0 0 0 0 0 0 0 0 0 0 0 0 0
4 1 0 0 0 0 20 82 95 165 138 218 297 365 387 279 73 0 0 0 0 0 0 0 0 0 0 0 0 0 0 0
0 0 0 0 0 73 111 126 62 69 286 351 432 489 431 332 81 4 8 0 0 0 0 0 0 0 0 0 0 0 0 0
0 0 0 15 69 44 66 72 31 59 138 337 433 482 459 268 270 105 0 0 0 0 0 0 0 0 0 0 0 0 0 0
0 0 117 229 218 130 22 0 0 0 134 418 494 528 480 352 334 14 0 0 0 0 0 0 0 0 0 0 0 0 0 0
0 111 324 325 291 192 56 10 19 10 493 529 494 520 484 292 237 33 0 0 0 0 0 0 0 0 0 0 0 0 0 0
110 202 380 391 345 149 53 23 18 52 463 550 478 430 422 315 214 107 6 2 0 0 0 0 0 0 0 0 0 0 0 0
307 309 311 227 365 422 175 84 30 44 189 476 403 315 299 184 90 0 0 0 0 0 0 0 0 0 0 0 0 0 0 0
656 582 449 461 570 361 594 196 296 324 656 503 415 268 117 55 34 0 0 0 0 0 1 0 0 0 0 0 0 0 0 0
814 786 585 612 916 654 691 849 359 467 655 500 441 122 15 2 0 0 0 0 0 0 0 0 0 0 0 0 0 0 0 0
793 775 746 751 926 1089 1057 929 984 668 810 616 404 149 0 0 0 0 0 0 0 0 0 0 0 0 0 0 0 0 0 0

GFSFLT2_con_sbcape_075.txt.gz
CAPE
0 2 3 169 306 203 213 387 472 530 662 817 933 923 902 665 415 417 356 230 138 65 25 7 0 0 0 0 0 0 0 0
4 44 48 3 20 77 110 166 181 142 202 224 273 335 361 332 291 281 251 198 125 48 16 0 0 0 0 0 0 0 0 0
1 7 3 26 39 106 91 116 66 41 44 23 43 67 65 89 176 220 217 155 102 54 10 0 0 0 0 0 0 0 0 0
2 2 2 2 4 90 102 49 0 0 0 0 0 5 52 99 142 182 182 130 86 42 0 0 0 0 0 0 0 0 0 0
1 0 1 2 4 5 30 27 1 3 0 0 7 19 34 42 40 43 26 25 1 1 0 0 0 0 0 0 0 0 0 0
2 0 0 0 0 0 0 5 6 22 1 10 24 17 6 21 1 0 0 0 0 0 0 0 0 0 0 0 0 0 0 0
7 3 1 0 0 0 0 0 1 7 34 65 81 62 32 22 1 2 0 0 0 0 0 0 0 0 0 0 0 0 0 0
5 5 1 8 0 0 0 0 0 24 52 113 134 105 57 61 20 3 0 0 0 0 0 0 0 0 0 0 0 0 0 0
1 1 1 0 0 0 0 0 0 8 79 118 156 168 78 92 24 18 0 0 0 0 0 0 0 0 0 0 0 0 0 0
1 1 0 0 0 0 0 0 0 0 55 103 149 183 106 127 50 39 0 0 0 0 0 0 0 0 0 0 0 0 0 0
2 0 0 0 0 0 0 0 0 7 24 66 80 105 110 93 46 0 0 0 0 0 0 0 0 0 0 0 0 0 0 0
0 0 0 0 0 0 0 0 15 0 12 0 12 17 106 82 0 0 0 0 0 0 0 0 0 0 0 0 0 0 0 0
0 0 0 0 0 0 0 5 0 0 0 0 54 225 177 92 0 0 0 0 0 0 0 0 0 0 0 0 0 0 0 0
0 0 0 0 0 0 0 0 0 0 0 69 122 187 231 57 39 4 0 0 0 0 0 0 0 0 0 0 0 0 0 0
0 0 0 0 0 0 0 0 0 0 0 52 117 185 192 148 46 4 0 0 0 0 0 0 0 0 0 0 0 0 0 0
0 0 0 0 0 0 0 0 0 0 0 26 100 160 214 198 96 14 0 0 0 0 0 0 0 0 0 0 0 0 0 0
0 0 0 12 22 23 11 0 0 0 62 144 175 168 164 183 187 29 0 0 0 0 0 0 0 0 0 0 0 0 0 0
0 0 2 37 45 50 18 0 0 0 24 208 213 163 219 159 80 0 0 0 0 0 0 0 0 0 0 0 0 0 0 0
0 0 6 77 124 109 9 0 0 0 8 234 202 79 51 12 1 0 0 0 0 0 0 0 0 0 0 0 0 0 0 0
0 34 68 108 175 165 82 17 0 5 28 111 144 100 56 2 0 0 0 0 0 0 0 0 0 0 0 0 0 0 0 0

GFSFLT2_con_sbcape_078.txt.gz
CAPE
58 56 14 9 715 415 288 405 568 626 782 805 881 686 409 409 372 309 136 50 0 0 0 0 0 0 0 0 0 0 0 0
45 13 0 0 26 163 325 427 569 627 747 683 629 322 262 282 228 144 78 54 30 18 0 0 0 0 0 0 0 0 0 0
5 2 1 10 3 102 146 261 261 248 248 215 255 127 65 17 53 76 65 53 44 23 0 0 0 0 0 0 0 0 0 0
2 3 4 1 15 3 76 110 130 47 34 0 0 0 0 10 36 70 63 56 44 21 0 0 0 0 0 0 0 0 0 0
5 2 3 2 2 1 69 1 0 0 0 0 0 0 0 0 16 10 4 10 0 0 0 0 0 0 0 0 0 0 0 0
2 4 4 5 6 1 10 2 0 0 5 0 1 0 0 0 0 0 0 0 0 0 0 0 0 0 0 0 0 0 0 0
0 0 1 3 0 0 0 0 0 0 0 0 0 0 0 0 0 0 0 0 0 0 0 0 0 0 0 0 0 0 0 0
2 0 0 0 0 0 0 0 0 0 32 8 1 0 0 0 0 0 0 0 0 0 0 0 0 0 0 0 0 0 0 0
4 2 0 0 0 0 0 0 9 31 45 35 9 8 12 0 0 0 0 0 0 0 0 0 0 0 0 0 0 0 0 0
6 7 3 0 0 0 0 0 0 14 40 66 52 23 30 1 0 0 0 0 0 0 0 0 0 0 0 0 0 0 0 0
2 1 0 0 0 0 0 0 0 0 6 34 69 77 52 40 0 0 0 0 0 0 0 0 0 0 0 0 0 0 0 0
1 1 0 0 0 0 0 0 0 0 0 14 29 43 35 15 0 0 0 0 0 0 0 0 0 0 0 0 0 0 0 0
0 0 0 0 0 0 0 0 0 0 0 0 10 0 10 0 0 0 0 0 0 0 0 0 0 0 0 0 0 0 0 0
0 0 0 0 0 0 0 0 0 0 0 0 0 6 15 0 0 0 0 0 0 0 0 0 0 0 0 0 0 0 0 0
0 0 0 0 0 0 0 0 0 0 0 0 0 0 31 6 0 0 0 0 0 0 0 0 0 0 0 0 0 0 0 0
0 0 0 0 0 0 0 0 0 0 0 0 0 0 8 8 0 0 0 0 0 0 0 0 0 0 0 0 0 0 0 0
0 0 0 0 0 0 0 0 0 0 0 0 0 1 22 56 21 0 0 0 0 0 0 0 0 0 0 0 0 0 0 0
0 0 0 0 0 0 0 0 0 0 0 0 0 28 49 55 47 0 0 0 0 0 0 0 0 0 0 0 0 0 0 0
0 0 0 0 0 0 0 0 0 0 0 0 3 17 43 57 49 31 1 0 0 0 0 0 0 0 0 0 0 0 0 0
0 0 0 0 0 2 9 1 0 0 0 0 13 50 65 52 24 23 0 0 0 0 0 0 0 0 0 0 0 0 0 0

GFSFLT2_con_sbcape_081.txt.gz
CAPE
10 23 11 40 323 341 479 583 877 1098 1108 837 543 435 398 360 203 70 0 0 0 0 0 0 0 0 0 0 0 0 0 0
1 16 1 3 0 188 178 359 682 858 847 572 300 279 281 195 16 0 0 0 0 0 0 0 1 0 0 0 0 0 0 0
38 1 0 0 0 2 89 362 521 519 556 330 150 129 36 0 0 0 0 0 0 0 0 1 8 0 0 0 0 0 0 0
2 1 0 2 2 11 4 120 410 410 344 215 78 26 0 0 0 0 0 0 0 0 0 0 0 0 0 0 0 0 0 0
3 2 0 1 0 0 5 30 45 187 125 59 2 2 0 0 0 0 0 0 0 0 0 0 0 0 0 0 0 0 0 0
4 6 4 1 2 0 1 0 0 33 45 20 8 0 0 0 0 0 0 0 0 0 0 0 0 0 0 0 0 0 0 0
6 6 2 0 0 0 0 0 0 9 54 11 19 8 0 0 0 0 0 0 0 0 0 0 0 0 0 0 0 0 0 0
1 7 4 0 0 4 6 21 43 82 31 22 6 1 0 0 0 0 0 0 0 0 0 0 0 0 0 0 0 0 0 0
0 1 6 3 0 0 3 0 0 0 8 0 0 0 0 0 0 0 0 0 0 0 0 0 0 0 0 0 0 0 0 0
3 2 1 0 0 0 0 0 12 2 0 1 11 1 0 0 0 0 0 0 0 0 0 0 0 0 0 0 0 0 0 0
6 3 1 0 0 0 0 0 4 20 24 14 6 0 0 0 0 0 0 0 0 0 0 0 0 0 0 0 0 0 0 0
3 2 0 0 0 0 0 0 0 0 5 17 3 1 5 0 0 0 0 0 0 0 0 0 0 0 0 0 0 0 0 0
1 0 0 0 0 0 0 5 0 0 0 2 20 16 22 8 0 0 0 0 0 0 0 0 0 0 0 0 0 0 0 0
0 0 0 0 0 0 0 0 0 0 0 0 0 9 35 4 0 0 0 0 0 0 0 0 0 0 0 0 0 0 0 0
0 0 0 0 0 0 0 0 0 0 0 0 0 0 6 0 0 0 0 0 0 0 0 0 0 0 0 0 0 0 0 0
0 0 0 0 0 0 0 0 0 0 0 0 0 0 0 0 0 0 0 0 0 0 0 0 0 0 0 0 0 0 0 0
0 0 0 0 0 0 0 0 0 0 0 0 0 0 0 0 5 0 0 0 0 0 0 0 0 0 0 0 0 0 0 0
0 0 0 0 0 0 0 0 0 0 0 0 0 0 0 0 4 11 6 0 0 0 0 0 0 0 0 0 0 0 0 0
0 0 0 0 0 0 0 0 0 0 0 0 0 0 0 20 15 14 2 0 0 0 0 0 0 0 0 0 0 0 0 0
0 0 0 0 0 0 0 0 0 0 0 0 0 0 0 1 19 44 18 0 0 0 0 0 0 0 0 0 0 0 0 0

GFSFLT2_con_sbcape_084.txt.gz
CAPE
52 61 42 366 225 547 985 1073 1039 1080 718 512 413 332 283 298 183 30 1 0 82 9 0 0 0 0 0 0 0 0 0 0
0 9 1 13 12 119 403 682 788 840 465 291 189 205 175 120 0 0 0 0 1 6 0 0 0 0 0 0 0 0 0 0
7 11 1 1 7 24 145 250 485 397 356 199 112 89 8 0 0 0 0 0 0 1 0 0 0 0 0 0 0 0 0 0
22 1 0 0 0 0 14 15 101 234 254 140 67 36 0 0 0 0 0 0 1 14 3 0 0 0 0 0 0 0 0 0
1 0 0 0 0 0 3 32 54 173 182 78 19 0 0 0 0 0 0 0 0 0 0 0 0 0 0 0 0 0 0 0
2 1 0 0 1 3 6 12 66 105 95 51 14 0 0 0 0 0 0 0 0 0 0 0 0 0 0 0 0 0 0 0
3 1 1 0 0 0 0 22 60 30 119 58 18 0 0 0 0 0 0 0 0 0 0 0 0 0 0 0 0 0 0 0
2 1 0 0 0 0 2 0 12 42 72 57 10 3 0 0 0 0 0 0 0 0 0 0 0 0 0 0 0 0 0 0
5 3 0 0 0 0 0 39 12 24 50 31 5 4 3 0 0 0 0 0 0 0 0 0 0 0 0 0 0 0 0 0
2 8 5 0 4 2 4 6 10 38 26 12 14 1 0 0 0 0 0 0 0 0 0 0 0 0 0 0 0 0 0 0
2 1 2 0 1 2 3 0 4 11 8 0 0 1 0 0 0 0 0 0 0 0 0 0 0 0 0 0 0 0 0 0
2 2 0 0 0 0 0 0 5 27 6 7 3 11 0 0 0 0 0 0 0 0 0 0 0 0 0 0 0 0 0 0
1 1 2 0 0 0 0 0 0 0 0 4 4 5 2 0 0 0 0 0 0 0 0 0 0 0 0 0 0 0 0 0
1 0 0 0 0 0 1 0 0 0 0 11 41 49 37 7 0 0 0 0 0 0 0 0 0 0 0 0 0 0 0 0
0 0 0 0 0 0 0 0 0 1 0 0 5 30 48 42 16 0 0 0 0 0 0 0 0 0 0 0 0 0 0 0
0 0 0 0 0 0 0 0 0 0 0 0 0 0 7 8 1 0 0 0 0 0 0 0 0 0 0 0 0 0 0 0
0 0 0 0 0 0 0 0 0 0 0 0 0 0 0 2 0 0 0 0 0 0 0 0 0 0 0 0 0 0 0 0
0 0 0 0 0 0 0 0 0 0 0 0 0 0 0 0 0 0 0 0 0 0 0 0 0 0 0 0 0 0 0 0
0 0 0 0 0 0 0 0 0 0 0 0 0 0 0 0 0 0 0 0 0 0 0 0 0 0 0 0 0 0 0 0
0 0 0 0 0 0 0 0 0 0 0 0 0 0 0 0 0 2 3 17 14 3 0 0 0 0 0 0 0 0 0 0

GFSFLT2_con_sbcape_087.txt.gz
CAPE
307 267 207 66 241 655 949 1126 1124 963 773 623 589 507 452 494 254 96 169 230 123 0 0 0 0 0 0 0 0 0 0 3
270 287 451 212 60 53 377 911 852 713 523 369 255 283 266 160 13 59 258 324 93 0 0 0 0 0 0 0 0 0 0 1
71 90 183 248 61 129 184 487 525 507 362 153 158 386 209 13 0 24 208 153 40 0 0 0 0 0 0 0 0 0 0 0
7 14 24 5 166 119 211 197 400 345 281 299 242 210 57 0 0 0 71 124 37 9 0 0 0 0 0 0 0 0 0 3
7 4 3 0 1 11 181 75 186 205 170 199 118 39 1 0 0 0 0 51 24 11 0 0 0 0 0 0 0 0 0 1
10 2 1 0 2 3 42 83 75 104 102 114 71 3 0 0 0 0 0 0 56 23 0 0 0 0 0 0 0 0 0 0
2 1 0 0 0 6 10 4 77 63 64 119 22 0 0 2 0 0 0 0 0 0 0 0 0 0 0 0 0 0 0 0
2 1 0 0 4 7 26 15 43 19 51 60 22 0 0 0 0 0 0 0 0 0 0 0 0 0 0 0 0 0 0 0
3 2 0 0 0 1 3 30 11 13 9 68 20 0 0 0 0 0 0 0 0 0 0 0 0 0 0 0 0 0 0 0
4 4 0 1 0 1 0 3 4 14 3 34 46 27 5 0 0 0 0 0 0 0 0 0 0 0 0 0 0 0 0 0
4 4 0 0 0 5 6 0 24 4 9 51 53 31 4 1 0 0 0 0 0 0 0 0 0 0 0 0 0 0 0 0
3 5 1 0 0 0 1 4 3 2 0 55 89 77 47 28 7 0 0 0 0 0 0 0 0 0 0 0 0 0 0 0
1 2 1 0 5 7 5 1 17 1 1 38 52 50 43 56 8 0 0 0 0 0 0 0 0 0 0 0 0 0 0 0
3 2 0 0 3 1 0 0 0 4 6 9 13 16 29 51 32 9 0 1 1 0 0 0 0 0 0 0 0 0 0 0
3 2 2 0 0 0 0 0 0 5 6 2 27 31 28 12 23 33 48 27 6 9 0 0 1 0 0 0 0 0 0 0
2 1 1 2 0 0 0 0 0 0 0 7 3 20 41 27 38 64 74 61 53 14 0 0 1 0 0 0 0 0 0 0
4 0 0 0 0 0 0 0 1 0 0 0 5 55 70 70 102 117 94 79 46 31 0 0 0 6 0 0 0 0 0 0
1 1 1 0 0 0 0 0 0 0 0 0 2 9 16 31 70 84 74 59 60 44 29 15 3 0 0 0 0 0 0 0
0 0 4 1 0 1 0 0 0 0 0 0 0 0 0 0 20 33 36 61 56 87 91 42 2 1 0 0 0 0 0 0
1 1 3 5 1 0 0 0 0 0 0 0 0 0 0 0 0 4 13 25 48 74 149 130 19 22 3 0 0 0 0 0

GFSFLT2_con_sbcape_090.txt.gz
CAPE
920 928 1023 208 8 0 20 1191 1317 1255 1096 1162 1065 857 663 731 572 499 430 99 0 1 2 1 0 0 0 0 0 0 0 0
738 701 418 452 201 120 71 667 791 898 845 857 701 605 538 305 232 341 212 51 0 0 0 0 0 0 0 0 0 0 0 0
207 433 325 146 155 308 129 112 381 465 621 526 412 810 459 235 127 218 145 28 0 0 0 0 0 0 0 0 0 0 0 0
173 196 446 177 216 273 201 143 202 702 878 783 685 636 392 148 163 218 100 0 0 0 0 0 0 0 0 0 0 0 0 1
177 46 83 49 240 269 324 117 143 231 464 592 550 484 306 55 179 257 93 0 0 0 0 0 0 0 0 0 0 0 0 2
50 34 32 12 4 66 113 78 116 97 111 137 629 202 100 50 87 102 54 0 0 0 0 4 0 0 0 0 0 0 0 3
44 7 11 8 1 2 10 110 126 84 84 103 125 184 53 4 54 63 66 48 39 19 21 17 0 0 0 0 0 0 0 0
6 2 1 4 2 4 3 25 76 75 75 52 62 93 60 3 14 0 34 96 102 41 24 1 0 0 0 0 0 0 0 0
5 3 0 0 1 7 41 2 70 55 20 20 19 101 21 12 2 0 0 0 13 10 8 0 0 0 0 0 0 0 0 0
5 2 2 1 1 4 15 80 5 17 5 12 26 54 23 6 13 0 0 0 0 0 0 0 0 0 0 0 0 0 0 0
6 2 3 2 2 2 1 3 2 11 20 6 59 65 28 5 11 0 0 0 0 0 0 0 0 0 0 0 0 0 0 0
7 7 3 1 5 1 9 7 14 11 21 30 97 70 44 11 11 8 1 0 0 0 0 0 0 0 0 0 0 0 0 0
10 10 8 0 0 3 3 10 17 13 19 59 80 68 70 99 41 36 4 27 30 5 0 0 0 0 0 0 0 0 0 0
9 14 7 8 2 0 5 5 9 4 15 76 112 114 90 147 102 69 85 43 27 7 0 3 6 0 0 5 15 1 0 0
7 8 9 7 21 2 0 0 1 2 10 38 94 111 115 95 95 89 90 82 75 72 86 134 131 34 0 64 127 127 90 0
15 7 9 12 2 1 1 1 8 2 1 12 49 102 99 85 87 83 101 98 92 134 145 181 166 171 30 0 22 89 129 124
25 12 10 8 10 3 0 0 43 14 14 2 9 33 32 38 67 83 93 117 126 172 161 179 157 191 162 125 23 50 55 77
27 24 13 9 10 7 0 0 0 12 6 21 19 3 10 27 49 99 121 124 127 186 227 216 208 198 229 219 184 126 96 63
13 13 12 9 11 12 5 4 2 33 42 14 18 30 40 58 86 105 138 211 293 349 316 319 364 344 325 371 338 242 275 232
5 4 5 9 18 18 29 25 17 22 46 59 36 56 94 80 110 122 160 202 267 229 234 244 255 305 336 329 349 454 268 265

GFSFLT2_con_sbcape_093.txt.gz
CAPE
1275 1364 1270 734 381 179 27 128 17 368 1217 1241 1108 898 735 736 769 567 103 31 3 5 7 1 0 0 0 0 0 0 7 3
1146 1033 1362 1333 811 33 40 7 90 312 774 934 756 667 635 738 543 255 51 1 2 5 3 0 0 0 0 0 0 1 2 0
779 692 1017 787 504 78 48 2 16 122 611 590 560 839 838 652 391 134 40 1 2 3 1 0 0 0 0 0 0 9 6 2
263 415 657 590 181 217 93 0 2 16 1048 794 1020 1045 798 513 231 74 23 4 1 0 0 0 0 0 0 0 4 15 8 0
259 194 328 380 271 219 114 25 20 105 939 697 796 1032 675 663 397 103 1 0 0 0 0 0 0 0 0 0 1 16 11 0
321 83 121 229 253 281 133 120 0 194 430 550 684 749 538 432 384 93 0 0 0 0 0 6 0 0 0 0 1 9 12 1
86 64 102 95 99 74 203 107 99 47 41 258 471 350 371 225 273 182 36 10 0 0 1 4 1 0 0 0 1 5 6 0
23 16 24 10 84 9 12 203 92 61 14 57 98 137 144 205 288 240 147 62 29 8 18 5 0 0 0 0 0 0 3 2
16 6 4 1 4 8 56 122 93 58 23 95 90 43 125 220 324 288 203 194 278 91 26 0 0 0 0 0 0 0 0 6
8 6 3 5 9 11 13 31 104 57 33 57 42 44 147 226 182 196 258 254 101 48 21 0 0 0 0 0 0 0 0 1
12 5 8 17 12 9 11 48 94 26 11 0 2 12 83 162 110 119 129 75 87 59 2 4 7 1 0 0 0 0 0 0
5 7 13 12 5 5 3 19 14 2 0 0 0 2 50 124 32 6 11 0 0 1 12 27 0 0 0 0 0 0 0 0
16 6 7 8 11 6 1 3 3 1 0 0 0 18 41 85 51 15 5 12 0 9 47 62 28 0 0 0 0 0 0 0
8 15 5 9 9 11 7 2 5 6 5 9 15 38 65 78 65 51 42 64 49 92 100 72 28 0 1 25 29 0 0 0
12 10 9 9 8 11 16 10 10 14 38 33 32 56 80 104 92 97 99 70 170 185 163 127 99 16 42 98 139 111 76 0
3 13 5 14 22 12 6 4 13 35 26 33 62 95 97 64 111 138 135 215 245 107 148 166 294 172 99 35 167 129 149 132
17 8 6 17 7 10 12 7 1 3 21 45 74 22 28 38 116 168 145 182 239 216 280 349 316 270 216 186 104 96 142 121
21 16 13 14 18 23 18 0 0 7 2 6 33 24 6 63 170 148 262 245 224 305 338 329 287 288 332 254 241 142 103 176
5 10 15 11 14 26 26 17 19 3 5 0 12 24 28 54 84 147 259 277 276 282 308 375 412 369 485 422 389 232 310 333
9 4 6 17 11 14 14 7 0 0 15 31 3 4 0 11 26 39 190 236 258 329 373 587 519 459 509 573 472 387 252 186

GFSFLT2_con_sbcape_096.txt.gz
CAPE
1791 1804 1364 807 773 178 138 149 31 73 3 57 1065 788 607 681 665 550 357 196 122 67 2 0 0 0 0 0 0 2 0 0
1351 1302 1462 1425 486 58 25 119 45 0 0 17 399 346 436 546 378 267 181 115 22 4 0 0 0 0 0 0 0 11 0 0
905 966 1241 1325 901 103 39 125 7 0 1 20 253 289 396 453 121 101 80 19 12 3 0 0 0 0 0 0 0 0 0 0
474 647 767 782 521 195 44 62 53 13 11 0 296 327 473 371 47 26 16 12 7 1 0 0 0 0 0 0 0 3 0 0
424 343 536 541 243 160 42 4 2 4 1 0 273 382 341 157 8 11 4 2 0 0 0 0 0 0 0 0 0 0 0 0
472 369 217 197 263 102 45 3 0 3 1 21 240 264 310 65 0 0 0 0 0 0 0 0 0 0 0 0 0 1 0 0
453 87 114 90 68 96 87 55 8 38 54 77 181 143 229 79 0 0 0 0 0 0 0 0 0 0 0 0 0 1 0 0
116 25 40 32 74 55 92 49 1 2 43 181 112 107 107 72 0 0 0 0 0 0 0 0 0 0 0 0 0 1 0 0
26 5 0 0 29 23 10 64 8 5 0 2 114 99 87 25 27 0 3 0 0 1 0 0 0 0 0 0 0 0 0 0
25 4 1 0 23 4 0 27 5 1 1 14 7 8 50 51 92 49 26 8 0 22 2 0 0 0 0 0 0 0 0 0
11 6 3 1 4 12 8 2 15 4 2 11 21 13 40 117 99 116 80 95 70 15 0 0 0 0 0 0 0 0 0 0
7 0 12 8 6 5 19 36 44 50 2 1 7 3 60 89 28 29 39 24 13 2 0 0 0 0 0 0 0 0 0 0
6 9 6 7 2 0 3 19 29 9 8 0 5 0 13 12 1 0 0 0 0 8 0 0 0 0 0 0 0 0 0 0
11 1 9 10 3 3 0 1 0 0 0 0 0 0 0 2 6 6 1 0 0 0 0 0 0 0 0 0 0 0 0 0
9 11 11 1 10 3 2 1 2 1 1 0 0 0 0 0 26 17 27 11 11 25 2 7 1 0 0 19 85 41 0 0
3 12 18 0 5 1 1 1 0 0 0 0 0 0 4 38 50 62 33 47 48 40 38 41 46 5 0 0 19 97 64 0
4 5 12 2 0 1 0 0 0 0 0 0 0 0 0 15 46 67 74 76 58 83 73 69 79 173 88 103 40 48 29 22
11 7 9 5 14 0 0 2 2 1 0 0 0 3 15 21 41 85 92 48 53 71 62 87 149 204 144 145 91 71 33 14
6 11 3 7 9 16 3 1 2 2 2 3 2 0 2 0 0 8 44 35 42 41 61 89 158 134 127 124 147 94 63 56
1 12 6 5 13 11 5 0 2 2 4 2 4 0 0 0 0 0 42 31 44 74 115 129 155 171 123 122 107 113 94 77

GFSFLT2_con_sbcape_102.txt.gz
CAPE
950 1067 1204 1232 1494 2140 1679 1327 1325 802 750 220 161 268 143 362 507 722 676 500 485 378 142 45 1 0 0 0 0 0 0 0
727 706 760 702 853 918 732 608 642 243 413 161 35 52 59 246 354 654 554 431 350 226 80 0 0 0 0 0 0 0 0 0
518 646 506 432 240 350 176 428 413 275 210 56 0 0 73 195 201 444 461 316 214 64 13 0 0 0 0 0 0 0 0 0
154 162 310 275 71 13 48 92 176 123 39 31 2 0 0 1 116 271 312 211 95 19 8 0 0 0 0 0 0 0 0 0
41 61 272 267 40 0 0 0 0 0 0 0 0 0 32 28 104 129 70 70 3 1 0 0 0 0 0 0 0 0 0 0
0 13 105 36 0 1 0 1 1 0 0 0 0 3 3 81 83 0 0 0 0 0 0 0 0 0 0 0 0 0 0 0
0 0 5 0 0 1 1 0 1 4 1 1 0 48 1 73 0 0 0 0 0 0 0 0 0 0 0 0 0 0 0 0
0 0 0 0 0 4 2 1 1 5 3 1 1 16 81 11 0 0 0 0 0 0 0 0 0 0 0 0 0 0 0 0
0 0 0 0 0 1 1 1 1 1 3 2 5 24 0 0 0 0 0 0 0 0 0 0 0 0 0 0 0 0 0 0
0 0 0 0 0 0 2 0 1 3 23 17 5 46 0 0 0 0 0 0 0 0 0 0 0 0 0 0 0 0 0 0
0 0 0 0 0 0 3 0 2 2 12 3 55 2 0 0 0 0 0 0 0 0 0 0 0 0 0 0 0 0 0 0
0 0 0 0 0 0 0 1 0 1 1 0 20 0 0 0 0 0 0 0 0 0 0 0 0 0 0 0 0 0 0 0
0 0 0 0 0 0 1 2 1 1 2 6 7 0 0 0 0 0 0 0 0 0 0 0 0 0 0 0 0 0 0 0
0 0 0 0 0 0 0 1 2 0 1 0 0 0 0 0 0 0 0 0 0 0 0 0 0 0 0 0 0 0 0 0
0 0 0 1 0 0 1 4 8 1 1 0 0 0 0 0 0 0 0 0 0 0 0 0 0 0 0 0 0 0 0 0
0 0 0 0 0 2 1 3 18 0 0 0 0 0 0 0 0 0 0 0 0 0 0 0 0 0 0 0 0 0 0 0
0 0 0 0 0 0 0 1 0 0 2 1 0 0 0 0 1 0 0 0 0 0 0 0 0 0 0 0 0 0 0 0
0 0 0 0 0 1 0 0 0 0 1 1 1 0 0 0 0 0 0 0 0 0 6 0 0 0 0 0 0 0 0 1
0 0 0 0 0 1 0 0 0 0 0 0 1 1 0 0 0 0 0 0 0 0 0 14 16 12 1 0 11 1 0 0
0 0 0 1 0 0 0 0 0 0 0 0 0 0 0 0 0 0 0 0 0 0 9 24 24 9 11 25 17 17 9 6

GFSFLT2_con_sbcape_108.txt.gz
CAPE
881 1146 1286 1513 1739 1819 1592 1594 1321 937 899 704 689 561 594 670 613 760 742 743 641 517 380 226 165 79 2 0 0 0 0 0
592 895 1170 1269 1372 1561 1554 1317 730 631 536 363 150 240 254 346 436 514 605 532 501 385 166 88 75 3 0 0 0 0 0 0
290 552 701 859 901 1193 1381 471 518 367 402 335 167 166 233 247 170 360 389 512 361 291 55 8 4 0 0 0 0 0 0 0
136 223 249 169 296 312 479 534 370 243 66 63 96 96 27 27 56 238 341 377 261 143 4 1 0 0 0 0 0 0 0 0
22 48 30 20 75 139 140 318 234 171 3 18 17 84 90 46 83 205 199 212 87 2 0 0 0 0 0 0 0 0 0 0
0 0 8 66 1 7 85 62 200 152 27 3 4 64 36 18 21 112 131 69 20 0 0 0 0 0 0 0 0 0 0 0
0 0 5 0 1 1 0 1 1 45 22 0 1 4 12 0 42 134 57 8 13 0 0 0 0 0 0 0 0 0 0 0
0 0 0 0 1 0 1 1 1 1 1 0 0 0 0 3 62 95 2 1 0 0 0 0 0 0 0 0 0 0 0 0
0 0 0 0 1 1 1 1 1 1 1 1 1 0 0 13 38 48 1 0 0 0 0 0 0 0 0 0 0 0 0 0
0 0 0 1 0 0 1 1 1 2 0 2 1 1 1 31 64 31 2 0 0 0 0 0 0 0 0 0 0 0 0 0
0 0 0 0 0 1 2 4 1 1 2 1 0 1 4 32 20 11 0 0 0 0 0 0 0 0 0 0 0 0 0 0
0 0 0 0 0 1 11 5 1 1 2 2 2 1 12 12 4 0 0 0 0 0 0 0 0 0 0 0 0 0 0 0
0 0 0 0 1 1 9 7 4 3 4 2 2 2 8 19 0 0 0 0 0 0 0 0 0 0 0 0 0 0 0 0
0 0 0 1 0 0 1 1 5 0 1 1 1 3 5 0 0 0 0 0 0 0 0 0 0 0 0 0 0 0 0 0
0 0 0 0 0 0 0 0 4 1 1 2 4 0 0 0 0 0 0 0 0 0 0 0 0 0 0 0 0 0 0 0
0 0 0 0 0 0 0 0 7 3 1 5 1 0 0 0 0 0 0 0 0 0 0 0 0 0 0 0 0 0 0 0
0 0 0 0 0 0 0 0 3 7 0 1 1 1 0 0 0 0 0 0 0 0 0 0 0 0 0 0 0 0 0 0
0 0 0 0 0 0 0 0 11 8 1 1 4 4 6 0 0 0 0 0 0 0 0 0 0 0 0 0 0 0 0 0
0 1 0 0 0 0 0 0 11 1 0 0 6 7 5 1 0 0 0 0 0 0 0 0 0 0 0 0 0 1 4 3
0 1 1 0 0 1 0 0 2 1 0 0 0 3 3 4 0 0 0 0 0 0 0 0 0 0 0 0 1 17 2 4

GFSFLT2_con_sbcape_114.txt.gz
CAPE
2222 2128 1791 1253 1244 1368 1622 1681 1581 1421 1277 1240 926 699 683 1097 912 1300 1406 1279 1304 1128 793 526 415 233 159 92 169 244 584 486
2247 2333 2283 2084 1794 1083 1267 1388 1360 1154 1042 744 379 246 661 867 915 1090 1178 1188 1187 848 523 341 173 78 5 0 94 193 512 487
2280 2348 2354 2231 2233 1685 1079 1150 904 722 704 495 487 1130 1304 1063 679 850 1004 963 892 484 312 175 0 0 0 0 33 552 481 367
2136 2340 2396 2161 1647 2109 2079 2217 2073 1764 1538 1148 1272 1281 936 510 216 607 751 648 530 293 152 37 118 401 248 24 529 379 422 289
2080 2287 2436 1833 1703 1792 2331 2500 2280 2113 1712 1448 1179 1070 617 179 328 625 1117 452 715 359 233 522 555 525 385 430 204 198 49 38
2106 2161 2419 2009 1715 1635 2075 1876 2072 1633 1576 1415 1221 1255 1006 475 508 436 683 512 837 765 816 591 470 337 327 219 83 40 35 24
1960 2133 2281 2046 1534 1517 1517 1592 1356 1112 1134 975 980 1268 1027 457 406 239 460 743 190 494 604 375 299 214 228 105 50 24 28 24
1607 1986 2105 1899 1431 1302 1242 1446 1335 873 721 1204 982 1313 761 828 754 334 425 439 282 128 55 220 174 183 169 86 57 18 12 17
1327 1842 1918 1761 1554 1378 1157 1208 1325 767 551 770 716 584 500 755 851 900 307 543 370 72 11 114 131 161 119 144 59 14 11 14
913 1260 1795 1497 1279 1329 1041 925 980 774 565 372 401 363 202 327 550 814 525 146 120 24 21 154 171 169 106 129 57 15 18 16
722 1373 1697 1494 1428 1018 687 687 584 311 182 399 345 268 188 242 126 668 400 175 244 56 64 185 146 156 109 68 54 33 27 13
588 1171 1475 1290 1032 686 724 607 390 175 178 47 166 62 98 82 40 118 187 129 194 111 139 180 150 138 56 70 54 30 40 14
586 978 1374 576 558 515 661 555 274 295 284 15 6 18 11 35 22 98 69 63 227 147 228 204 180 162 119 80 50 35 32 19
534 854 1293 356 501 805 559 159 97 30 54 59 32 9 6 8 12 49 16 65 94 55 181 204 172 192 106 73 38 51 44 33
605 827 1180 853 1068 510 677 494 137 281 181 139 31 12 7 6 5 1 2 7 4 2 129 167 137 181 155 34 17 26 34 29
501 762 854 863 1040 690 595 396 157 152 175 148 61 93 63 8 9 2 1 2 1 0 1 68 162 125 121 20 8 14 31 30
147 449 566 789 957 719 455 132 132 104 214 210 207 79 29 23 3 1 1 0 0 0 1 23 74 203 143 26 44 44 58 4
38 321 241 144 380 427 247 84 42 92 97 163 142 48 22 2 1 1 1 0 0 0 0 2 153 200 172 83 48 39 50 4
8 239 41 6 28 86 81 52 4 10 14 65 51 6 2 1 1 1 1 2 1 0 0 2 99 191 165 133 24 42 0 1
9 81 1 4 99 72 60 12 10 18 70 42 15 4 1 1 0 1 0 1 0 0 0 0 19 132 231 138 64 51 60 57

GFSFLT2_con_sbcape_117.txt.gz
CAPE
2125 1825 1551 1352 1509 1490 1670 1606 1691 1615 1548 1197 450 109 249 182 292 685 560 1162 1407 1150 820 709 658 449 419 302 258 253 683 639
2196 2121 2087 2109 1889 1312 1427 1490 1382 1354 1186 869 145 89 342 316 704 827 1077 1224 1218 941 504 437 355 238 191 166 146 270 579 581
2049 2180 2319 2375 2176 1672 1149 1134 1081 1053 970 432 237 676 164 645 732 870 1016 1056 861 517 304 186 111 88 100 95 164 733 556 695
2071 2226 2380 2502 1957 2131 1768 1800 1769 1609 1807 1528 1608 1192 936 958 713 797 871 817 507 354 132 25 171 526 276 38 483 454 415 546
2092 2306 2462 2482 2341 2327 2034 1985 1870 2067 1726 1777 1728 1175 1723 1088 1255 811 1226 710 728 413 69 639 510 542 523 682 409 467 315 127
2134 2137 2436 2714 2318 2125 2049 2126 1958 1958 1981 2152 1587 1482 1368 1248 432 126 710 1315 896 337 642 857 590 519 515 476 244 287 41 123
2085 2186 2578 2638 2378 1925 2036 2214 2167 2149 1915 2097 1644 1416 1071 881 762 736 858 1207 1151 490 722 897 680 432 383 258 113 39 25 94
1558 2292 2430 2807 1980 2075 2141 1976 1887 2061 1955 1894 1601 1362 1549 1019 1213 848 567 1068 665 184 308 497 594 290 315 124 49 32 10 39
1129 2100 2618 2797 2012 1838 1935 1694 1696 1867 1556 1887 1653 1408 1418 1212 1147 904 617 1052 197 77 63 95 471 212 142 68 59 39 9 8
437 1072 2497 2883 2400 2264 1817 1499 1576 1743 1307 1514 1604 1217 1135 1332 1040 1207 897 852 160 57 127 93 46 142 168 86 49 36 16 9
56 1483 1990 2952 2507 2023 1917 1670 1511 1523 1344 1074 1190 1085 920 990 1086 995 814 794 527 88 62 33 18 82 106 111 119 41 22 6
0 932 2028 2855 2438 2016 1831 1536 1103 1108 923 906 955 983 743 702 976 920 969 640 278 7 34 30 47 92 67 90 67 52 33 9
110 466 1699 2304 2060 1987 1269 1049 720 723 677 579 699 874 537 645 566 549 149 111 83 68 58 55 55 227 125 110 107 82 103 14
316 664 1310 1935 1472 1092 1212 1314 1128 1059 678 581 368 295 366 278 384 207 25 65 78 11 48 23 42 234 123 102 85 59 36 16
488 736 1059 1665 799 1015 1318 1126 834 478 329 399 444 146 58 20 16 61 31 19 10 18 49 13 33 109 172 64 66 36 46 31
637 738 975 1498 999 1246 1473 1045 670 660 558 522 343 281 95 12 4 7 10 7 29 12 39 66 69 125 167 126 128 62 18 37
889 916 1049 1343 1383 1382 1457 1380 940 640 464 538 369 293 173 44 8 3 5 3 2 7 0 64 59 145 158 146 156 132 99 20
950 901 1162 1306 1417 1559 1431 1324 916 636 502 460 506 405 405 122 44 7 0 1 1 0 1 35 57 84 175 221 174 146 103 172
193 454 877 993 1254 1526 1318 1107 765 590 510 406 411 388 230 166 38 7 2 1 0 1 0 9 18 23 43 122 241 206 210 189
2 173 530 267 856 1305 976 815 614 372 255 191 142 273 100 15 23 2 1 1 1 1 2 2 5 5 29 101 213 222 174 153